Location: Kuppenheim
(48.8299°N, 8.2568°E)
Time: 09:24:14
(UTC+00:00)

Cosmos 2369 Rocket - Pass Details

Date: 20 June 2021
Orbit: 827 x 854 km, 71.0° (Epoch: 26 July)

Event Time Altitude Azimuth Distance (km) Brightness Sun altitude
Rises 00:27:43 0° 328° (NNW) 3,434 6.1 -16.5°
Reaches altitude 10° 00:30:13 10° 325° (NW) 2,494 5.2 -16.4°
Maximum altitude 00:35:47 55° 249° (WSW) 1,022 2.4 -16.2°
Enters shadow 00:39:05 24° 181° (S) 1,691 3.2 -16.0°
